Vertical_Velocity
1 0 1 1 -10 -6 -1 -7 -0 -3 0 -1 0 -5 -4 1 -2 -8 -2 -5 -1 -2 -1 -2 -2 -1 4 4 -5 -6 6 2 4 2 1 -1 -1 -0 -1 -2 1 2 1 -2 -3 -2 -1 1 -1
1 -0 -1 -1 -7 -0 -6 -3 -1 -4 -3 4 1 2 0 -1 -0 -4 -1 -7 -1 -3 -3 -3 -1 -0 1 1 8 -4 -2 1 1 -0 1 2 -0 -1 -2 -1 0 1 -5 2 -0 -4 1 2 -0
4 5 -3 -3 -1 -3 -4 -1 2 -2 7 1 -1 3 -0 -3 2 -1 1 -3 -2 -3 -2 -4 -3 -0 -1 4 0 7 -8 -8 -2 2 5 0 2 2 5 -2 2 3 -3 -6 2 5 -5 3 3
1 -2 1 -3 -3 -9 -3 -1 -0 -1 -3 8 1 -0 -0 1 -5 -2 -3 0 -2 -2 1 -2 -2 -3 -0 -1 2 1 5 1 -3 -6 -4 -2 -0 -4 -0 -1 -2 4 3 -6 3 6 -0 -2 3
3 1 -0 1 -5 -5 -2 -2 1 -0 -1 1 -1 0 2 5 3 -2 -2 3 0 -4 1 2 -2 -1 -0 3 -0 1 1 2 3 1 1 -3 -2 3 3 -1 -3 3 -2 2 0 1 6 -0 -3
-1 0 -1 -0 -3 -4 -2 -2 5 1 1 3 3 -2 -1 0 0 -3 1 -3 3 3 1 1 2 1 -1 0 9 3 5 2 6 2 -2 7 -6 -5 -2 -1 -4 0 -0 -2 3 2 1 8 -5
-5 -2 -3 -1 -2 -3 -4 2 3 -2 0 -1 -1 -2 3 4 2 1 5 -3 -0 -2 -0 -1 2 11 -1 0 8 21 75 19 25 16 41 48 -2 3 -2 -3 -2 -6 -2 -1 1 5 -0 4 -6
0 -4 1 -1 -2 -13 -5 -1 12 3 -3 2 1 -2 -3 -8 -1 3 5 -1 3 -2 -3 -0 -1 1 -0 3 3 1 -3 -95 -6 20 -7 -4 -1 21 -4 6 6 -8 -3 4 -0 2 6 5 -3
6 -1 -0 -3 1 -15 -3 -0 -6 13 -6 -0 6 -6 -5 -2 -1 -2 2 -3 -2 -1 -2 3 1 -2 -2 2 6 3 -5 -1 0 -10 -12 -19 36 24 -0 7 1 -6 -7 2 4 4 8 -2 2
-1 3 -6 -5 -3 -3 -3 4 3 3 2 3 -0 3 2 -2 -5 -2 2 -1 1 -4 -1 1 -2 -0 -3 -1 -0 4 10 10 2 -11 -26 -30 -17 8 1 5 -2 14 -7 3 4 4 7 -2 -5
-2 -3 -3 -6 -3 6 -1 -2 8 2 -0 -2 -10 -2 3 -2 -0 1 3 -2 -0 1 2 -1 -1 -2 -3 -2 2 -2 5 1 3 11 -7 -10 -15 19 4 2 1 4 5 -5 1 4 9 -4 0
4 -2 0 -10 -3 2 -1 1 -4 7 -12 -1 2 1 -1 -3 -2 2 1 -3 -3 -2 -2 -2 -1 -3 -1 -5 -3 1 -2 1 -3 1 22 -9 34 6 1 1 4 1 -14 4 -5 -1 7 -3 -0
5 -4 -0 -3 -0 -3 7 -4 -10 -5 6 -5 6 4 -3 -2 -1 4 4 2 -1 -3 -3 -1 -5 -2 1 -1 1 -1 1 -5 3 -1 2 12 -7 -2 -4 3 2 -4 -2 -2 3 -0 0 12 1
-2 1 -6 -2 -6 1 7 -8 12 -16 15 3 1 -2 1 -1 -3 2 1 -1 -2 -3 -2 -2 -4 -2 -1 -1 2 4 3 -2 2 -0 9 18 -4 -9 -1 4 -5 0 7 -4 0 -0 -2 9 5
0 4 -1 -3 -3 -5 8 -4 -2 -8 9 10 2 3 1 -5 -2 -3 -0 -3 -3 0 -2 -2 0 -3 -0 -2 1 2 -2 0 -4 5 7 -2 -0 3 0 5 3 -7 -1 5 2 3 4 2 2
2 2 2 -7 1 -11 7 -17 -12 -4 7 -4 4 4 3 -3 -10 -1 8 -1 -1 -4 -5 -2 -2 -1 -2 -2 0 -0 1 -5 -8 2 -4 -2 1 2 1 -3 -1 4 9 -3 -3 3 2 -0 1
0 -1 1 -6 -1 -1 -0 -7 -7 -1 5 -2 4 2 0 6 2 -3 7 -2 -1 -3 -4 -4 -6 -3 0 1 -2 1 1 -1 4 2 -3 -6 -0 7 5 1 2 -1 -1 -6 -7 3 4 -1 3
-3 0 -0 -1 -2 -2 -3 -7 -5 -7 6 -4 -1 1 2 4 -12 -2 3 2 4 -1 -0 -3 -8 -4 0 -0 -2 3 -0 3 2 1 1 1 4 2 -0 4 5 -0 -1 1 2 -0 0 -8 2
1 3 1 -6 -4 4 -1 -1 -4 -4 5 1 -1 0 1 -4 8 1 3 3 1 1 0 -1 -8 -5 -1 3 0 4 -3 -1 1 1 7 6 2 -3 1 5 11 3 2 -5 -3 2 -2 1 1
1 1 -6 -9 -2 7 -2 -4 -3 -1 -4 -4 -4 2 -1 9 2 0 1 3 3 1 1 -3 -4 -5 -3 -1 3 1 2 -0 6 8 8 6 -8 4 5 -0 1 0 1 6 -3 0 0 5 -1
-1 2 -2 2 -5 -4 3 -6 -5 -8 1 3 3 0 8 -9 -4 -2 -3 0 2 -0 0 -2 -0 -7 -2 1 0 2 12 14 10 4 14 -1 -0 5 4 1 5 4 4 3 -4 1 1 -6 3
3 -2 2 2 7 -2 -2 -9 -6 -4 -3 -0 0 1 2 -3 9 9 -2 -2 -0 1 4 1 -1 -7 -3 -3 1 -1 0 -2 -8 -3 4 3 2 5 3 1 3 -2 2 4 2 6 3 -2 -3
-11 2 1 1 0 2 -4 7 -21 1 -3 -4 -2 -1 1 -5 -5 -8 -9 2 3 1 1 3 0 -4 -4 -3 -8 -5 -0 1 -5 2 0 6 2 3 2 3 8 -2 -2 8 6 -8 16 -2 -7
-0 -1 1 1 -0 3 -6 3 -10 -2 -6 -2 -2 -1 -2 2 -2 12 14 7 1 1 2 1 2 -2 -4 -2 -0 -7 -8 -4 1 1 -2 -4 2 1 5 3 3 3 -1 -7 -13 -29 9 1 2
6 0 -1 0 3 -5 -1 7 -18 -4 -3 -2 -2 -5 -3 4 5 -3 -8 -6 -0 -3 0 2 2 0 -1 -6 -2 1 -3 -7 -3 -2 -2 -5 -1 -1 1 -1 -4 -3 -1 -4 7 20 -4 -1 -6
-3 -3 -5 -3 0 -1 2 -2 -14 -5 -2 -2 -3 6 1 8 3 -5 -5 -2 2 -1 -1 -0 -0 1 -0 -2 -5 -2 1 0 -2 -0 -3 -3 -4 -1 1 1 -0 -8 -6 -5 -12 3 3 3 3
-5 5 -3 -0 -1 2 -3 -7 -7 -3 -3 -1 -2 1 2 1 -2 -7 2 1 -2 -3 -5 -1 -1 2 -1 0 -1 -5 -2 3 -2 -1 1 3 0 -0 5 3 -1 1 7 8 6 -0 -4 -2 2
-7 -0 1 3 1 1 -2 -0 -1 -6 -2 1 -1 1 7 15 10 8 1 -5 -0 6 7 2 3 3 5 1 0 -2 -6 -4 4 6 -0 -0 3 0 -0 4 3 4 2 2 2 1 -1 -3 -2
-0 3 1 -1 -0 0 0 2 7 4 4 3 4 5 7 6 4 5 16 22 29 21 16 4 4 2 -2 1 1 -3 -4 -4 -5 -0 2 -1 5 2 -2 -1 -1 -1 -2 -2 3 1 1 -2 -1
-5 -3 -3 -1 2 -1 1 -6 1 2 2 0 4 5 7 6 7 4 5 4 3 1 -1 -3 5 23 14 5 2 2 4 -2 -1 -5 -5 1 2 1 0 1 3 3 0 3 0 0 -3 -1 -1
Height
1499 1501 1503 1505 1515 1517 1518 1499 1481 1476 1475 1469 1468 1469 1473 1475 1476 1490 1481 1484 1486 1487 1487 1488 1490 1493 1495 1496 1498 1502 1503 1504 1504 1506 1508 1511 1514 1516 1519 1521 1523 1524 1525 1526 1529 1532 1535 1537 1540
1497 1499 1502 1504 1520 1525 1512 1484 1480 1470 1468 1466 1465 1468 1471 1478 1476 1478 1480 1481 1483 1484 1485 1487 1489 1491 1493 1495 1496 1498 1501 1503 1505 1507 1508 1511 1513 1516 1518 1521 1523 1525 1526 1526 1528 1532 1536 1537 1540
1497 1498 1501 1505 1517 1519 1505 1476 1468 1469 1467 1464 1465 1467 1469 1473 1475 1477 1478 1478 1480 1481 1482 1485 1488 1490 1492 1493 1495 1496 1498 1502 1504 1507 1508 1510 1512 1515 1517 1520 1523 1524 1526 1529 1530 1532 1535 1539 1541
1495 1500 1502 1506 1507 1488 1480 1472 1471 1470 1469 1462 1460 1467 1469 1470 1471 1476 1477 1476 1478 1480 1480 1482 1485 1487 1489 1491 1493 1494 1495 1498 1501 1504 1507 1510 1513 1514 1518 1520 1523 1526 1528 1530 1533 1534 1535 1540 1543
1494 1496 1504 1505 1496 1476 1474 1472 1471 1470 1470 1460 1459 1466 1467 1468 1470 1474 1475 1476 1476 1477 1479 1480 1482 1484 1486 1488 1490 1491 1492 1493 1496 1500 1505 1508 1511 1513 1516 1519 1523 1526 1530 1531 1534 1537 1536 1540 1543
1492 1493 1507 1507 1493 1472 1470 1468 1468 1464 1461 1458 1459 1463 1468 1469 1469 1471 1473 1475 1475 1476 1476 1478 1480 1482 1483 1484 1486 1484 1488 1491 1495 1498 1502 1504 1507 1510 1516 1519 1522 1527 1529 1533 1535 1538 1539 1543 1543
1488 1494 1498 1493 1489 1476 1463 1463 1459 1454 1454 1456 1455 1463 1467 1467 1468 1470 1471 1472 1473 1474 1475 1475 1477 1480 1480 1481 1482 1486 1476 1486 1496 1497 1499 1504 1504 1508 1515 1518 1521 1527 1529 1533 1536 1539 1541 1543 1544
1484 1486 1489 1486 1486 1478 1462 1462 1458 1450 1451 1452 1451 1459 1464 1462 1466 1468 1469 1470 1471 1471 1473 1472 1475 1476 1477 1478 1479 1483 1486 1480 1492 1497 1494 1504 1508 1511 1513 1517 1519 1525 1529 1534 1536 1541 1544 1542 1545
1482 1488 1492 1485 1481 1466 1459 1462 1454 1452 1448 1449 1450 1451 1453 1458 1463 1466 1466 1467 1468 1468 1470 1471 1472 1473 1475 1476 1477 1480 1485 1488 1491 1494 1499 1505 1509 1514 1514 1519 1520 1524 1529 1533 1538 1541 1544 1544 1547
1478 1481 1474 1465 1464 1463 1464 1466 1459 1457 1448 1448 1449 1449 1450 1454 1459 1462 1462 1463 1464 1465 1467 1468 1469 1470 1472 1474 1475 1477 1479 1483 1484 1492 1495 1504 1507 1511 1515 1520 1522 1524 1528 1533 1538 1542 1544 1545 1547
1470 1465 1463 1462 1461 1462 1462 1459 1458 1455 1449 1444 1445 1446 1449 1453 1457 1459 1460 1461 1462 1464 1464 1465 1466 1467 1469 1470 1472 1473 1476 1479 1483 1486 1489 1500 1505 1511 1515 1518 1521 1523 1528 1533 1537 1541 1545 1545 1549
1469 1459 1460 1458 1459 1461 1457 1454 1453 1451 1446 1442 1440 1442 1446 1450 1454 1455 1457 1458 1460 1461 1462 1462 1464 1465 1467 1468 1470 1472 1474 1477 1480 1483 1488 1491 1491 1506 1511 1516 1519 1521 1527 1531 1536 1540 1545 1547 1549
1462 1456 1457 1455 1455 1455 1453 1451 1449 1444 1443 1439 1440 1441 1444 1448 1451 1452 1453 1455 1457 1458 1459 1459 1462 1464 1465 1466 1468 1470 1472 1474 1477 1480 1483 1485 1493 1502 1509 1514 1517 1521 1525 1530 1535 1539 1544 1548 1548
1453 1452 1451 1450 1449 1449 1450 1444 1445 1439 1439 1436 1437 1439 1441 1444 1446 1448 1449 1451 1454 1456 1456 1457 1459 1462 1464 1465 1467 1469 1472 1473 1475 1475 1476 1482 1490 1500 1507 1512 1516 1520 1524 1530 1534 1538 1543 1547 1549
1449 1451 1447 1443 1443 1443 1443 1441 1436 1432 1433 1433 1433 1435 1438 1441 1444 1442 1443 1447 1450 1453 1454 1455 1456 1459 1462 1464 1466 1469 1471 1473 1473 1474 1479 1486 1491 1498 1504 1510 1514 1520 1523 1528 1533 1538 1543 1547 1548
1448 1447 1452 1438 1438 1435 1440 1440 1426 1425 1426 1426 1427 1430 1434 1436 1438 1440 1440 1443 1446 1449 1451 1453 1454 1457 1460 1463 1465 1467 1470 1474 1476 1477 1482 1487 1494 1499 1504 1508 1513 1518 1522 1526 1531 1537 1540 1545 1547
1449 1457 1449 1441 1434 1434 1435 1432 1422 1421 1420 1420 1421 1424 1429 1432 1435 1436 1436 1438 1441 1445 1448 1449 1453 1455 1459 1461 1465 1467 1471 1475 1477 1480 1483 1487 1492 1497 1502 1506 1511 1516 1520 1525 1530 1536 1540 1543 1546
1455 1451 1447 1442 1432 1433 1432 1425 1419 1417 1416 1414 1414 1418 1422 1426 1426 1430 1432 1436 1439 1442 1445 1446 1450 1454 1457 1461 1464 1466 1470 1474 1478 1481 1484 1487 1491 1497 1501 1506 1510 1512 1518 1522 1529 1534 1539 1542 1546
1443 1444 1447 1437 1434 1438 1432 1425 1414 1409 1409 1408 1408 1410 1414 1417 1422 1428 1430 1433 1437 1439 1441 1443 1446 1451 1454 1457 1460 1465 1467 1472 1475 1478 1481 1485 1489 1495 1500 1504 1507 1511 1516 1520 1527 1531 1534 1540 1545
1442 1442 1444 1436 1430 1434 1427 1420 1410 1405 1400 1398 1401 1406 1408 1415 1420 1423 1426 1429 1432 1435 1438 1440 1442 1447 1451 1454 1458 1461 1464 1468 1471 1473 1476 1483 1487 1492 1497 1501 1504 1509 1514 1519 1523 1529 1532 1538 1542
1440 1442 1443 1441 1430 1425 1427 1419 1409 1400 1395 1393 1395 1398 1402 1406 1412 1416 1420 1423 1427 1431 1433 1436 1439 1444 1449 1453 1456 1459 1462 1463 1465 1468 1471 1478 1483 1490 1494 1498 1502 1507 1513 1516 1521 1527 1530 1534 1538
1444 1435 1434 1430 1432 1444 1424 1437 1411 1402 1396 1389 1390 1392 1395 1402 1404 1408 1414 1418 1422 1427 1431 1433 1436 1441 1445 1449 1453 1455 1455 1457 1460 1465 1469 1473 1481 1488 1492 1496 1500 1505 1510 1514 1519 1524 1528 1531 1535
1435 1431 1433 1432 1436 1437 1425 1437 1407 1401 1396 1390 1385 1385 1387 1390 1396 1401 1405 1412 1417 1424 1427 1430 1433 1437 1441 1445 1449 1452 1453 1456 1457 1461 1466 1470 1478 1484 1490 1494 1498 1502 1508 1512 1515 1519 1525 1528 1533
1435 1432 1428 1428 1433 1445 1424 1429 1413 1404 1389 1382 1378 1379 1381 1385 1390 1396 1403 1410 1416 1422 1424 1427 1429 1433 1437 1442 1445 1449 1452 1454 1456 1459 1463 1468 1476 1481 1487 1490 1497 1501 1503 1507 1511 1517 1523 1526 1530
1434 1438 1438 1436 1438 1437 1413 1421 1405 1387 1382 1379 1376 1371 1374 1376 1385 1393 1398 1405 1411 1415 1420 1424 1426 1429 1433 1438 1443 1446 1449 1451 1453 1456 1460 1466 1474 1478 1484 1488 1492 1497 1501 1505 1512 1516 1519 1522 1525
1430 1436 1438 1438 1440 1429 1406 1411 1394 1376 1371 1371 1370 1367 1364 1372 1378 1385 1393 1400 1406 1411 1417 1420 1423 1425 1429 1433 1439 1444 1447 1449 1452 1456 1460 1464 1469 1473 1480 1485 1489 1492 1496 1502 1507 1512 1514 1517 1519
1434 1434 1431 1440 1432 1441 1413 1396 1380 1378 1369 1366 1365 1366 1365 1370 1375 1382 1391 1398 1403 1408 1411 1415 1419 1423 1425 1429 1433 1439 1444 1448 1450 1455 1459 1464 1468 1472 1476 1480 1485 1490 1494 1497 1501 1504 1506 1510 1513
1418 1427 1437 1440 1438 1437 1410 1406 1404 1390 1379 1370 1370 1369 1368 1369 1375 1383 1389 1396 1401 1405 1410 1414 1418 1421 1424 1427 1430 1434 1439 1446 1450 1454 1457 1461 1464 1468 1472 1476 1480 1484 1488 1491 1495 1497 1500 1503 1505
1422 1431 1435 1432 1431 1432 1422 1414 1408 1400 1390 1382 1381 1376 1375 1376 1383 1387 1392 1398 1403 1406 1409 1412 1416 1420 1423 1425 1427 1430 1435 1440 1445 1449 1452 1455 1459 1463 1466 1470 1474 1477 1481 1484 1487 1489 1493 1494 1497
1413 1421 1425 1430 1427 1428 1427 1426 1410 1404 1398 1394 1392 1390 1386 1384 1387 1390 1397 1403 1408 1410 1414 1418 1421 1421 1422 1424 1425 1427 1430 1434 1437 1441 1445 1450 1452 1455 1460 1464 1467 1470 1473 1476 1479 1481 1484 1486 1487